Regional Weather Roundup
Issued by NWS

Home | Current Version | Previous Version | Text Only | Print | Product List | Glossary Off
Versions: 1 2 3 4 5 6 7 8 9 10 11 12 13 14 15 16 17 18 19 20 21 22 23 24 25 26 27 28 29 30 31 32 33 34 35 36 37 38 39 40 41 42 43 44 45 46 47 48 49 50

000
ASUS43 KFSD 191202
RWRSD

WEATHER ROUNDUP FOR SOUTH DAKOTA
NATIONAL WEATHER SERVICE SIOUX FALLS SD
600 AM CST SUN NOV 19 2017

NOTE: "FAIR" INDICATES FEW OR NO CLOUDS BELOW 12,000 FEET WITH NO
SIGNIFICANT WEATHER AND/OR OBSTRUCTIONS TO VISIBILITY.


SDZ001>005-009-010-012>017-191300-
NORTHWEST AND NORTH CENTRAL SOUTH DAKOTA

CITY           SKY/WX    TMP DP  RH WIND       PRES   REMARKS
BUFFALO          N/A     28  17  63 W12       29.90F WCI  18
FAITH            N/A     26  19  74 SW7       29.99S WCI  18
MOBRIDGE       CLOUDY    22  18  85 E6        29.97F WCI  14
$$

SDZ012>016-024>037-041>051-057-063-072>074-191300-
SOUTHWEST AND SOUTH CENTRAL SOUTH DAKOTA

CITY           SKY/WX    TMP DP  RH WIND       PRES   REMARKS
RAPID CTY ARPT CLOUDY    23  13  65 CALM      30.01F
PIERRE         CLOUDY    27  22  81 SW13      30.03F WCI  16
CUSTER         CLEAR     27  13  55 W12       30.00F WCI  17
ELLSWORTH AFB  CLOUDY    27  15  59 CALM      30.00S
PHILIP         CLEAR     24  20  84 W9        30.05F WCI  14
PINE RIDGE     CLEAR     21  16  81 W5        30.07F WCI  15
SPEARFISH      FAIR      37  12  35 W13       29.99S
WINNER         FAIR      30  20  66 SW8       30.08F WCI  22
$$

SDZ004>011-016>023-039-040-191300-
NORTHEAST SOUTH DAKOTA

CITY           SKY/WX    TMP DP  RH WIND       PRES   REMARKS
ABERDEEN       CLOUDY    17  15  92 S7        30.03F WCI   8
WATERTOWN      CLOUDY    21  17  84 SW9       30.01F WCI  11
BROOKINGS      CLOUDY    20  16  84 SW7       30.06F WCI  11
SISSETON         N/A     29  19  66 W17G25    29.98F WCI  17
$$

SDZ017-020-022-023-036>040-048>070-191300-
SOUTHEAST SOUTH DAKOTA

CITY           SKY/WX    TMP DP  RH WIND       PRES   REMARKS
SIOUX FALLS    CLEAR     24  18  77 SW5       30.10F WCI  18
HURON          CLOUDY    23  19  85 S8        30.06F WCI  14
CHAMBERLAIN    CLOUDY    24  24  99 W5        30.07F WCI  18
MITCHELL       CLEAR     27  21  78 SW9       30.09F WCI  18
YANKTON        CLOUDY    19  17  92 SE3       30.13S
$$

ABBREVIATIONS USED IN REMARKS
   TC - TEMPERATURE IN CELSIUS
  WCI - WIND CHILL INDEX
   HX - HEAT INDEX
  VSB - VISIBILITY




USA.gov is the U.S. government's official web portal to all federal, state and local government web resources and services.